DTA230 FNLU-FNSA

Flight info

Callsign DTA230
Flight time 1h 8m
Altitude 39000
Route AVOVA DCT DEPAN DCT MA DCT KILBI DCT AXUGO DCT G130J DCT G130E
Aircraft B737/M-SDE2E3FGHIRWXY/LB1

Departure

Time 2026-04-30 10:35
Airport Quatro de Fevereiro International Airport (FNLU)

Arrival

Time 2026-04-30 11:44
Airport Saurimo Airport (FNSA)
Time Latitude Longitude Altitude Speed Heading
2026-04-30 10:35 -8.91134 13.28905 5425 ft 270 kts 98°
2026-04-30 10:35 -8.91450 13.30783 6284 ft 273 kts 98°
2026-04-30 10:35 -8.91775 13.32687 7107 ft 276 kts 98°
2026-04-30 10:36 -8.92108 13.34612 7990 ft 279 kts 98°
2026-04-30 10:36 -8.92446 13.36549 8933 ft 281 kts 98°
2026-04-30 10:36 -8.92789 13.38497 9976 ft 278 kts 98°
2026-04-30 10:36 -8.93131 13.40418 10722 ft 289 kts 98°
2026-04-30 10:37 -8.93504 13.42515 11057 ft 311 kts 98°
2026-04-30 10:37 -8.93892 13.44696 11817 ft 316 kts 99°
2026-04-30 10:37 -8.94284 13.46879 12741 ft 315 kts 99°
2026-04-30 10:37 -8.94672 13.49032 13644 ft 315 kts 99°
2026-04-30 10:38 -8.95065 13.51218 14397 ft 316 kts 99°
2026-04-30 10:38 -8.95457 13.53411 15126 ft 317 kts 100°
2026-04-30 10:38 -8.95849 13.55624 15855 ft 321 kts 101°
2026-04-30 10:38 -8.96243 13.57857 16659 ft 321 kts 101°
2026-04-30 10:39 -8.96634 13.60077 17475 ft 321 kts 102°
2026-04-30 10:39 -8.97023 13.62279 18211 ft 322 kts 102°
2026-04-30 10:39 -8.97420 13.64519 18864 ft 323 kts 102°
2026-04-30 10:39 -8.97818 13.66753 19568 ft 320 kts 102°
2026-04-30 10:40 -8.98213 13.68970 20254 ft 319 kts 102°
2026-04-30 10:40 -8.98602 13.71150 20885 ft 318 kts 102°
2026-04-30 10:40 -8.98994 13.73352 21519 ft 317 kts 102°
2026-04-30 10:40 -8.99385 13.75555 22157 ft 316 kts 102°
2026-04-30 10:41 -8.99772 13.77746 22768 ft 315 kts 102°
2026-04-30 10:41 -9.00158 13.79931 23369 ft 314 kts 102°
2026-04-30 10:41 -9.00538 13.82085 23878 ft 313 kts 102°
2026-04-30 10:41 -9.00921 13.84252 24368 ft 311 kts 102°
2026-04-30 10:42 -9.01301 13.86402 24850 ft 310 kts 101°
2026-04-30 10:42 -9.01679 13.88538 25319 ft 308 kts 101°
2026-04-30 10:42 -9.02059 13.90679 25635 ft 313 kts 101°
2026-04-30 10:42 -9.02450 13.92873 25718 ft 326 kts 101°
2026-04-30 10:43 -9.02861 13.95178 25841 ft 337 kts 101°
2026-04-30 10:43 -9.03278 13.97533 26190 ft 340 kts 101°
2026-04-30 10:43 -9.03693 13.99897 26572 ft 343 kts 101°
2026-04-30 10:43 -9.04106 14.02253 26918 ft 345 kts 101°
2026-04-30 10:44 -9.04525 14.04650 27293 ft 346 kts 101°
2026-04-30 10:44 -9.04946 14.07049 27745 ft 347 kts 101°
2026-04-30 10:44 -9.05377 14.09498 27885 ft 364 kts 101°
2026-04-30 10:44 -9.05833 14.12085 28004 ft 381 kts 101°
2026-04-30 10:45 -9.06311 14.14794 28114 ft 397 kts 101°
2026-04-30 10:45 -9.06807 14.17608 28212 ft 412 kts 101°
2026-04-30 10:45 -9.07313 14.20482 28306 ft 425 kts 101°
2026-04-30 10:45 -9.07840 14.23463 28438 ft 435 kts 100°
2026-04-30 10:46 -9.08375 14.26502 28764 ft 439 kts 100°
2026-04-30 10:46 -9.08910 14.29554 29232 ft 440 kts 100°
2026-04-30 10:46 -9.09439 14.32569 29697 ft 441 kts 100°
2026-04-30 10:46 -9.09975 14.35629 30102 ft 443 kts 100°
2026-04-30 10:47 -9.10517 14.38712 30401 ft 445 kts 100°
2026-04-30 10:47 -9.11061 14.41815 30702 ft 448 kts 100°
2026-04-30 10:47 -9.11608 14.44929 31011 ft 451 kts 100°
2026-04-30 10:47 -9.12157 14.48059 31322 ft 453 kts 100°
2026-04-30 10:48 -9.12709 14.51211 31644 ft 455 kts 101°
2026-04-30 10:48 -9.13256 14.54330 32012 ft 455 kts 101°
2026-04-30 10:48 -9.13815 14.57481 32480 ft 453 kts 102°
2026-04-30 10:48 -9.14455 14.60605 32951 ft 451 kts 103°
2026-04-30 10:49 -9.15148 14.63714 33402 ft 451 kts 104°
2026-04-30 10:49 -9.15844 14.66762 33835 ft 450 kts 104°
2026-04-30 10:49 -9.16550 14.69858 34184 ft 451 kts 104°
2026-04-30 10:49 -9.17248 14.72957 34523 ft 451 kts 103°
2026-04-30 10:50 -9.17937 14.76058 34929 ft 449 kts 103°
2026-04-30 10:50 -9.18618 14.79144 35350 ft 447 kts 103°
2026-04-30 10:50 -9.19285 14.82185 35712 ft 446 kts 103°
2026-04-30 10:50 -9.19957 14.85257 36043 ft 446 kts 103°
2026-04-30 10:51 -9.20629 14.88331 36403 ft 444 kts 102°
2026-04-30 10:51 -9.21296 14.91383 36764 ft 443 kts 102°
2026-04-30 10:51 -9.21961 14.94427 37085 ft 442 kts 102°
2026-04-30 10:51 -9.22618 14.97433 37386 ft 442 kts 102°
2026-04-30 10:52 -9.23281 15.00468 37699 ft 441 kts 102°
2026-04-30 10:52 -9.23946 15.03511 37956 ft 442 kts 102°
2026-04-30 10:52 -9.24610 15.06550 38282 ft 440 kts 102°
2026-04-30 10:52 -9.25269 15.09568 38603 ft 439 kts 102°
2026-04-30 10:53 -9.25928 15.12589 38807 ft 440 kts 102°
2026-04-30 10:53 -9.26588 15.15614 38997 ft 439 kts 102°
2026-04-30 10:53 -9.27913 15.21697 39001 ft 449 kts 102°
2026-04-30 10:54 -9.29263 15.27908 38996 ft 451 kts 102°
2026-04-30 10:54 -9.30614 15.34130 38999 ft 452 kts 102°
2026-04-30 10:55 -9.31955 15.40318 39005 ft 453 kts 102°
2026-04-30 10:55 -9.33307 15.46558 39003 ft 452 kts 102°
2026-04-30 10:56 -9.34656 15.52791 39007 ft 452 kts 102°
2026-04-30 10:56 -9.35995 15.58980 39003 ft 451 kts 102°
2026-04-30 10:57 -9.37327 15.65148 39003 ft 450 kts 102°
2026-04-30 10:57 -9.38661 15.71325 39009 ft 448 kts 102°
2026-04-30 10:58 -9.39996 15.77515 39006 ft 447 kts 101°
2026-04-30 10:58 -9.41315 15.83637 39014 ft 446 kts 102°
2026-04-30 10:59 -9.42633 15.89762 39010 ft 446 kts 102°
2026-04-30 10:59 -9.43732 15.94870 39016 ft 445 kts 101°
2026-04-30 11:00 -9.45052 16.01008 39018 ft 445 kts 102°
2026-04-30 11:00 -9.46372 16.07155 39007 ft 445 kts 102°
2026-04-30 11:01 -9.47680 16.13250 39014 ft 446 kts 102°
2026-04-30 11:01 -9.49000 16.19412 39015 ft 447 kts 102°
2026-04-30 11:02 -9.50324 16.25591 39017 ft 448 kts 102°
2026-04-30 11:02 -9.51639 16.31736 39014 ft 449 kts 102°
2026-04-30 11:03 -9.52847 16.37965 39005 ft 450 kts 95°
2026-04-30 11:04 -9.53285 16.47460 39011 ft 446 kts 91°
2026-04-30 11:04 -9.53495 16.53700 39010 ft 448 kts 92°
2026-04-30 11:05 -9.53751 16.60039 39022 ft 452 kts 92°
2026-04-30 11:05 -9.54032 16.66444 39019 ft 455 kts 92°
2026-04-30 11:06 -9.54317 16.72828 39015 ft 456 kts 92°
2026-04-30 11:06 -9.54603 16.79254 39001 ft 455 kts 92°
2026-04-30 11:07 -9.54884 16.85614 39002 ft 453 kts 92°
2026-04-30 11:07 -9.55163 16.91972 39001 ft 451 kts 92°
2026-04-30 11:08 -9.55440 16.98309 39005 ft 448 kts 92°
2026-04-30 11:08 -9.55714 17.04613 39004 ft 447 kts 92°
2026-04-30 11:09 -9.55986 17.10878 38995 ft 445 kts 92°
2026-04-30 11:09 -9.56256 17.17144 38997 ft 444 kts 92°
2026-04-30 11:10 -9.56523 17.23354 38991 ft 443 kts 92°
2026-04-30 11:10 -9.56790 17.29602 38994 ft 443 kts 92°
2026-04-30 11:11 -9.57057 17.35861 38994 ft 444 kts 92°
2026-04-30 11:11 -9.57321 17.42091 38994 ft 445 kts 92°
2026-04-30 11:12 -9.57587 17.48385 38986 ft 446 kts 92°
2026-04-30 11:12 -9.57850 17.54644 38986 ft 447 kts 92°
2026-04-30 11:13 -9.58115 17.60970 38985 ft 448 kts 92°
2026-04-30 11:13 -9.58377 17.67247 38986 ft 448 kts 92°
2026-04-30 11:14 -9.58639 17.73564 38982 ft 448 kts 92°
2026-04-30 11:14 -9.58899 17.79854 38989 ft 448 kts 92°
2026-04-30 11:15 -9.59159 17.86167 38983 ft 448 kts 92°
2026-04-30 11:15 -9.59416 17.92440 38985 ft 447 kts 92°
2026-04-30 11:16 -9.59673 17.98740 38986 ft 447 kts 92°
2026-04-30 11:16 -9.59929 18.05048 38988 ft 446 kts 92°
2026-04-30 11:17 -9.60182 18.11292 38987 ft 446 kts 92°
2026-04-30 11:17 -9.60435 18.17581 38980 ft 446 kts 92°
2026-04-30 11:18 -9.60687 18.23858 38983 ft 445 kts 92°
2026-04-30 11:18 -9.60935 18.30083 38079 ft 443 kts 92°
2026-04-30 11:18 -9.61059 18.33196 37478 ft 441 kts 92°
2026-04-30 11:19 -9.61182 18.36313 36945 ft 439 kts 92°
2026-04-30 11:19 -9.61304 18.39379 36639 ft 431 kts 92°
2026-04-30 11:19 -9.61423 18.42409 36209 ft 428 kts 92°
2026-04-30 11:19 -9.61540 18.45365 35811 ft 424 kts 92°
2026-04-30 11:20 -9.61657 18.48338 35368 ft 421 kts 92°
2026-04-30 11:20 -9.61773 18.51292 34940 ft 418 kts 93°
2026-04-30 11:20 -9.61888 18.54237 34493 ft 417 kts 93°
2026-04-30 11:20 -9.62003 18.57172 34052 ft 415 kts 92°
2026-04-30 11:21 -9.62111 18.60064 33569 ft 413 kts 93°
2026-04-30 11:21 -9.62214 18.62967 33124 ft 411 kts 93°
2026-04-30 11:21 -9.62316 18.65850 32689 ft 408 kts 92°
2026-04-30 11:21 -9.62416 18.68721 32266 ft 405 kts 93°
2026-04-30 11:22 -9.62515 18.71567 31847 ft 403 kts 92°
2026-04-30 11:22 -9.62614 18.74396 31435 ft 401 kts 92°
2026-04-30 11:22 -9.62713 18.77209 31028 ft 398 kts 92°
2026-04-30 11:22 -9.62812 18.80015 30612 ft 397 kts 92°
2026-04-30 11:23 -9.62908 18.82778 30196 ft 395 kts 93°
2026-04-30 11:23 -9.63005 18.85560 29748 ft 393 kts 92°
2026-04-30 11:23 -9.63197 18.91060 28824 ft 387 kts 92°
2026-04-30 11:24 -9.63292 18.93785 28375 ft 384 kts 92°
2026-04-30 11:24 -9.63384 18.96440 27938 ft 381 kts 92°
2026-04-30 11:24 -9.63477 18.99117 27511 ft 378 kts 92°
2026-04-30 11:25 -9.63660 19.04410 26652 ft 373 kts 92°
2026-04-30 11:25 -9.63750 19.07026 26230 ft 370 kts 92°
2026-04-30 11:25 -9.63927 19.12195 25367 ft 367 kts 92°
2026-04-30 11:26 -9.64103 19.17348 24497 ft 365 kts 91°
2026-04-30 11:26 -9.64191 19.19918 24061 ft 364 kts 91°
2026-04-30 11:26 -9.64278 19.22482 23626 ft 363 kts 91°
2026-04-30 11:27 -9.64364 19.25039 23118 ft 362 kts 91°
2026-04-30 11:27 -9.64376 19.27544 22659 ft 359 kts 87°
2026-04-30 11:27 -9.64235 19.30071 22205 ft 356 kts 85°
2026-04-30 11:27 -9.64041 19.32570 21762 ft 354 kts 84°
2026-04-30 11:28 -9.63636 19.37511 20899 ft 349 kts 85°
2026-04-30 11:28 -9.63447 19.39925 20480 ft 346 kts 85°
2026-04-30 11:28 -9.63263 19.42357 20057 ft 344 kts 85°
2026-04-30 11:29 -9.63083 19.44790 19609 ft 343 kts 85°
2026-04-30 11:29 -9.62910 19.47177 19188 ft 342 kts 86°
2026-04-30 11:29 -9.62564 19.51980 18322 ft 340 kts 86°
2026-04-30 11:30 -9.62223 19.56751 17400 ft 337 kts 86°
2026-04-30 11:30 -9.62054 19.59110 16968 ft 334 kts 86°
2026-04-30 11:30 -9.61887 19.61456 16545 ft 332 kts 86°
2026-04-30 11:31 -9.61720 19.63779 16124 ft 329 kts 86°
2026-04-30 11:31 -9.61557 19.66061 15720 ft 327 kts 86°
2026-04-30 11:31 -9.61392 19.68360 15291 ft 326 kts 85°
2026-04-30 11:31 -9.61228 19.70649 14864 ft 324 kts 85°
2026-04-30 11:32 -9.61064 19.72928 14435 ft 323 kts 85°
2026-04-30 11:32 -9.60900 19.75203 14010 ft 322 kts 85°
2026-04-30 11:32 -9.60739 19.77436 13567 ft 321 kts 85°
2026-04-30 11:33 -9.60417 19.81916 12697 ft 315 kts 85°
2026-04-30 11:33 -9.60257 19.84125 12274 ft 312 kts 85°
2026-04-30 11:33 -9.60101 19.86281 11878 ft 309 kts 85°
2026-04-30 11:33 -9.59943 19.88467 11467 ft 305 kts 85°
2026-04-30 11:34 -9.59790 19.90578 11067 ft 302 kts 85°
2026-04-30 11:34 -9.59637 19.92693 10669 ft 300 kts 85°
2026-04-30 11:34 -9.59486 19.94786 10268 ft 293 kts 85°
2026-04-30 11:34 -9.59339 19.96813 10036 ft 280 kts 85°
2026-04-30 11:35 -9.59199 19.98745 9631 ft 275 kts 85°
2026-04-30 11:35 -9.59060 20.00661 9264 ft 268 kts 85°
2026-04-30 11:35 -9.58924 20.02526 8908 ft 262 kts 85°
2026-04-30 11:35 -9.58791 20.04349 8579 ft 256 kts 85°
2026-04-30 11:36 -9.58662 20.06129 8239 ft 251 kts 85°
2026-04-30 11:36 -9.58535 20.07868 7925 ft 252 kts 85°
2026-04-30 11:36 -9.58402 20.09678 7598 ft 261 kts 85°
2026-04-30 11:36 -9.58266 20.11544 7225 ft 266 kts 85°
2026-04-30 11:37 -9.58129 20.13414 6883 ft 264 kts 85°
2026-04-30 11:37 -9.57998 20.15215 6741 ft 256 kts 85°
2026-04-30 11:37 -9.57869 20.16980 6610 ft 247 kts 85°
2026-04-30 11:37 -9.57744 20.18687 6494 ft 238 kts 85°
2026-04-30 11:38 -9.57624 20.20331 6390 ft 229 kts 85°
2026-04-30 11:38 -9.57506 20.21936 6123 ft 225 kts 85°
2026-04-30 11:38 -9.57392 20.23496 5858 ft 219 kts 85°
2026-04-30 11:38 -9.57283 20.24978 5641 ft 207 kts 85°
2026-04-30 11:39 -9.57178 20.26403 5407 ft 198 kts 85°
2026-04-30 11:39 -9.57079 20.27761 5154 ft 188 kts 85°
2026-04-30 11:39 -9.57220 20.29017 4996 ft 174 kts 122°
2026-04-30 11:39 -9.57932 20.29980 5014 ft 175 kts 122°
2026-04-30 11:40 -9.58649 20.30969 5010 ft 172 kts 129°
2026-04-30 11:40 -9.59422 20.31876 4998 ft 167 kts 129°
2026-04-30 11:40 -9.60180 20.32768 5010 ft 168 kts 129°
2026-04-30 11:40 -9.60943 20.33673 5013 ft 169 kts 129°
2026-04-30 11:41 -9.61698 20.34573 5009 ft 167 kts 129°
2026-04-30 11:41 -9.62422 20.35435 5033 ft 156 kts 129°
2026-04-30 11:41 -9.63118 20.36264 4798 ft 152 kts 129°
2026-04-30 11:41 -9.63804 20.37078 4595 ft 151 kts 130°
2026-04-30 11:42 -9.64485 20.37882 4398 ft 150 kts 130°
2026-04-30 11:42 -9.65161 20.38692 4225 ft 151 kts 129°
2026-04-30 11:42 -9.65833 20.39495 4047 ft 151 kts 129°
2026-04-30 11:42 -9.66498 20.40318 3927 ft 150 kts 129°
2026-04-30 11:43 -9.67175 20.41119 3802 ft 149 kts 129°
2026-04-30 11:43 -9.67845 20.41924 3655 ft 148 kts 129°
2026-04-30 11:43 -9.68469 20.42669 3600 ft 120 kts 130°
2026-04-30 11:43 -9.68868 20.43145 3601 ft 57 kts 130°
2026-04-30 11:44 -9.69004 20.43307 3600 ft 18 kts 122°
2026-04-30 11:44 -9.69053 20.43348 3600 ft 7 kts 254°
2026-04-30 11:44 -9.69020 20.43315 3600 ft 8 kts 321°
2026-04-30 11:44 -9.68971 20.43267 3601 ft 12 kts 311°
2026-04-30 11:45 -9.68918 20.43203 3601 ft 12 kts 311°
2026-04-30 11:45 -9.68921 20.43135 3601 ft 11 kts 220°
2026-04-30 11:45 -9.68980 20.43085 3601 ft 11 kts 220°
2026-04-30 11:45 -9.69039 20.43037 3600 ft 11 kts 220°
2026-04-30 11:46 -9.69095 20.42989 3601 ft 10 kts 219°
2026-04-30 11:46 -9.69149 20.42944 3600 ft 10 kts 214°
2026-04-30 11:46 -9.69196 20.42905 3600 ft 8 kts 219°
2026-04-30 11:46 -9.69218 20.42858 3600 ft 6 kts 273°
2026-04-30 11:47 -9.69206 20.42848 3600 ft 1 kts
2026-04-30 11:47 -9.69197 20.42848 3598 ft 1 kts 360°
2026-04-30 11:47 -9.69194 20.42848 3599 ft 0 kts 355°
2026-04-30 11:47 -9.69194 20.42846 3599 ft 0 kts 42°